Terminal Aerodrome Forecast
Issued by NWS Brownsville, TX

Home | Current Version | Previous Version | Text Only | Print | Product List | Glossary On
Versions: 1 2 3 4 5 6 7 8 9 10 11 12 13 14 15 16 17 18 19 20 21 22
000
FTUS44 KBRO 291412 AAC
TAFMFE
TAF AMD
KMFE 291412Z 2914/3012 15011G18KT P6SM SCT014
      TEMPO 2914/2916 BKN014
     FM291600 16015G22KT P6SM SCT020
     FM300300 15012KT P6SM BKN020
     FM300600 15006KT 6SM HZ BKN015=

USA.gov is the U.S. government's official web portal to all federal, state and local government web resources and services.